Погода в Обильном

Россия / Оренбургская область     51°18′52″N   60°50′21″E
темп.,
°C
ветер,
м/с
пор.,
м/с
влажн.,
%
обл.,
%
осадки,
мм/ч
давл.,
гПа
погр.,
м
11 апреля, вс
вс1123:000в6997100 0.0 1037328
02:00+1всв3999100 0.0 1037267
05:000в4799100 0.0 1037260
08:00−1всв36966 0.0 1039122
11:00+1всв371004 0.0 1039166
14:00+2всв3610095 0.0 1038132
17:00+1всв35100100 0.0 103899
20:00−1всв359945 0.0 103891
12 апреля, пн
пн1223:00−3всв24967 0.0 103847
02:00−4св33935 0.0 103834
05:00−4св22935 0.0 103827
08:00−2всв23855 0.0 103851
11:00+2всв239226 0.0 103776
14:00+4св34855 0.0 1036107
17:00+5св34779 0.0 103679
20:00+1св447010 0.0 103734
13 апреля, вт
вт1323:00+1св45665 0.0 103759
02:000св46665 0.0 103784
05:000св49815 0.0 1038125
08:00+1всв512865 0.0 1039224
11:00+5всв7139497 0.0 1039432
14:00+6св6109793 0.0 1038310
17:00+5св61198100 0.0 1038322
20:00+4св41199100 0.0 1038203
14 апреля, ср
ср1423:00+2св5109999 0.0 1037162
02:00+1св499990 0.0 1036161
05:00+1всв49910 0.0 1035124
08:00+3всв511850 0.0 1035239
11:00+8всв69660 0.0 1033374
14:00+11всв78570 0.0 1031608
17:00+11всв79650 0.0 1029418
20:00+7св59760 0.0 1029140
15 апреля, чт
чт1523:00+6всв47720 0.0 1029102
02:00+5всв46710 0.0 102867
05:00+5всв44720 0.0 102740
08:00+6всв37700 0.0 1027158
11:00+12в57490 0.0 1025414
14:00+16в67350 0.0 1023857
17:00+17в56310 0.0 10211027
20:00+12всв45540 0.0 102153